User: anonymous   Login
Location: Unspecified
(0.0000°N, 0.0000°E)
Time: 19:56:02
(UTC+00:00)
Language:

TET - Orbit

View from above orbital plane
View from above orbital plane
View from above satellite
View from above satellite

Ground track
Ground track

The orbit data is extracted from the following two-line orbital elements,

1 38710U 12039D   20338.38557328  .00008174  00000-0  13544-3 0  9991
2 38710  97.5837  15.2841 0000875 358.6467   1.4783 15.52447899470086
Epoch (UTC): 03 December 2020 09:15:13
Eccentricity: 0.0000875
inclination: 97.5837°
perigee height: 409 km
apogee height: 410 km
right ascension of ascending node: 15.2841°
argument of perigee: 358.6467°
revolutions per day: 15.52447899
mean anomaly at epoch: 1.4783°
orbit number at epoch: 47008

The dashed part of the orbit path shows where the satellite is in the earth's shadow,  

DLR